Hettinger, ND

2:37 PM MDT on May 28, 2017 (GMT -0600)
Hettinger Municipal

Weather History for KHEI - August, 2013

Change the Weather History Date:

Wednesday, August 21, 2013

  Actual Average Record
Temperature  
Mean Temperature 67 °F -  
Max Temperature 84 °F 84 °F 95 °F (2010)
Min Temperature 49 °F 52 °F 43 °F (2011)
Cooling Degree Days 2 4  
Month to date cooling degree days 47 117  
Year to date cooling degree days 145 317  
Since 1 June cooling degree days 138 312  
Growing Degree Days 16 (Base 50)    
Moisture  
Dew Point 54 °F    
Average Humidity 58    
Maximum Humidity 93    
Minimum Humidity 37    
Precipitation  
Precipitation 0.00 in 0.04 in 0.11 in (2002)
Month to date precipitation 1.52 1.22  
Year to date precipitation 16.22 11.80  
Sea Level Pressure  
Sea Level Pressure 30.01 in    
Wind  
Wind Speed 10 mph (ENE)    
Max Wind Speed 21 mph    
Max Gust Speed 25 mph    
Visibility 10 miles    
Events      
T = Trace of Precipitation, MM = Missing Value Source: NWS Daily Summary

Daily Weather History Graph

Daily Weather History Graph

Search for Another Location

Airport or City:

Trip Planner

Search our weather history database for the weather conditions in past years. The results will help you decide how hot, cold, wet, or windy it might be!

Date:

Astronomy

Aug. 21, 2013 Rise Set
Actual Time 5:57 AM MDT 7:48 PM MDT
Civil Twilight 5:26 AM MDT 8:20 PM MDT
Nautical Twilight 4:46 AM MDT 8:59 PM MDT
Astronomical Twilight 4:04 AM MDT 9:41 PM MDT
Moon 7:50 PM MDT (8/21) 6:46 AM MDT (8/21)
Length of Visible Light 14h 54m
Length of Day
13h 50m
Full, 99% of the Moon is Illuminated
Aug 21
Full
Aug 28
Last Quarter
Sep 5
New
Sep 12
First Quarter
Sep 19
Full

Hourly Weather History & Observations

Time (MDT) Temp. Heat Index Dew Point Humidity Pressure Visibility Wind Dir Wind Speed Gust Speed Precip Events Conditions
12:53 AM 64.9 °F - 50.0 °F 58% 29.87 in 10.0 mi NNE 6.9 mph - N/A   Clear
1:53 AM 63.0 °F - 51.1 °F 65% 29.89 in 10.0 mi NE 9.2 mph - N/A   Clear
2:53 AM 59.0 °F - 52.0 °F 78% 29.90 in 10.0 mi ENE 5.8 mph - N/A   Clear
3:53 AM 59.0 °F - 54.0 °F 83% 29.90 in 10.0 mi ENE 4.6 mph - N/A   Clear
4:53 AM 53.1 °F - 50.0 °F 89% 29.92 in 10.0 mi Calm Calm - N/A   Clear
5:53 AM 50.0 °F - 48.0 °F 93% 29.95 in 10.0 mi WNW 3.5 mph - N/A   Clear
6:53 AM 53.1 °F - 51.1 °F 93% 29.97 in 10.0 mi Calm Calm - N/A   Clear
7:53 AM 62.1 °F - 57.0 °F 84% 29.98 in 10.0 mi Calm Calm - N/A   Clear
8:53 AM 70.0 °F - 59.0 °F 68% 29.98 in 10.0 mi ESE 6.9 mph - N/A   Clear
9:53 AM 75.9 °F - 60.1 °F 58% 29.98 in 10.0 mi East 9.2 mph - N/A   Clear
10:40 AM 80.6 °F 80.8 °F 57.2 °F 45% 30.04 in 10.0 mi East 11.5 mph - N/A   Partly Cloudy
10:53 AM 79.0 °F - 61.0 °F 54% 30.01 in 10.0 mi ENE 12.7 mph - N/A   Partly Cloudy
11:53 AM 78.1 °F - 60.1 °F 54% 30.01 in 10.0 mi ENE 13.8 mph - N/A   Clear
12:05 PM 78.8 °F - 59.0 °F 51% 30.07 in 10.0 mi ENE 13.8 mph - N/A   Partly Cloudy
12:53 PM 80.1 °F 80.7 °F 59.0 °F 48% 30.03 in 10.0 mi East 12.7 mph 20.7 mph N/A   Clear
1:15 PM 80.6 °F 80.8 °F 57.2 °F 45% 30.08 in 10.0 mi East 12.7 mph - N/A   Partly Cloudy
1:53 PM 79.0 °F - 57.0 °F 47% 30.03 in 10.0 mi East 12.7 mph 19.6 mph N/A   Clear
2:05 PM 80.6 °F 80.5 °F 55.4 °F 42% 30.08 in 10.0 mi ENE 16.1 mph - N/A   Partly Cloudy
2:53 PM 81.0 °F 80.8 °F 55.9 °F 42% 30.02 in 10.0 mi East 17.3 mph - N/A   Clear
3:53 PM 82.9 °F 81.9 °F 54.0 °F 37% 30.01 in 10.0 mi ENE 18.4 mph 25.3 mph N/A   Clear
4:53 PM 82.9 °F 81.9 °F 54.0 °F 37% 30.01 in 10.0 mi ENE 16.1 mph 23.0 mph N/A   Clear
5:08 PM 82.4 °F 81.4 °F 53.6 °F 37% 30.05 in 10.0 mi East 16.1 mph - N/A   Partly Cloudy
5:53 PM 81.0 °F 80.4 °F 53.1 °F 38% 30.02 in 10.0 mi East 16.1 mph - N/A   Clear
6:53 PM 77.0 °F - 53.1 °F 43% 30.02 in 10.0 mi ENE 11.5 mph - N/A   Clear
7:53 PM 72.0 °F - 52.0 °F 49% 30.04 in 10.0 mi ENE 10.4 mph - N/A   Clear
8:53 PM 66.9 °F - 52.0 °F 59% 30.06 in 10.0 mi NE 10.4 mph - N/A   Clear
9:53 PM 66.0 °F - 53.1 °F 63% 30.07 in 10.0 mi NE 11.5 mph - N/A   Clear
10:53 PM 63.0 °F - 51.1 °F 65% 30.09 in 10.0 mi ENE 11.5 mph - N/A   Clear
11:53 PM 63.0 °F - 50.0 °F 63% 30.10 in 10.0 mi ENE 12.7 mph - N/A   Clear